This demonstration page uses our WeatherBlox Daily Observations layout. Learn more.

Left ArrowRight Arrow

Hourly Observations for June 20, 2017

Temp ( °F °C ) Dew Point ( °F °C ) Humidity (%) Winds ( mph kmh ) Pressure ( in mb ) Visibility ( mi km ) Precip ( " mm )
12:15 am 00:15 Clear 65 18.3 49 9.6 57 57 SSW 5 7 30 1016 10 16.0934 0 0
12:35 am 00:35 Clear 66 18.7 49 9.3 55 55 Calm 30 1016 10 16.0934 0 0
12:55 am 00:55 Clear 63 17.1 49 9.2 60 60 Calm 30 1016 10 16.0934 0 0
1:15 am 01:15 Clear 63 17.2 49 9.7 62 62 WSW 3 6 30 1016 10 16.0934 0 0
1:35 am 01:35 Clear 63 17.4 50 10 62 62 SW 5 7 30 1016 10 16.0934 0 0
1:55 am 01:55 Clear 67 19.3 45 7.3 46 46 SW 3 6 30 1016 10 16.0934 0 0
2:15 am 02:15 Clear 63 17 47 8.6 58 58 Calm 30 1016 10 16.0934 0 0
2:35 am 02:35 Clear 60 15.8 51 10.3 70 70 Calm 30.03 1017 10 16.0934 0 0
2:55 am 02:55 Clear 61 16 49 9.4 65 65 Calm 30.03 1017 10 16.0934 0 0
3:15 am 03:15 Clear 59 15.1 50 10 72 72 Calm 30.03 1017 10 16.0934 0 0
3:35 am 03:35 Clear 59 15.1 49 9.6 70 70 Calm 30.03 1017 10 16.0934 0 0
3:55 am 03:55 Clear 60 15.7 49 9.5 67 67 Calm 30.03 1017 10 16.0934 0 0
4:15 am 04:15 Clear 61 16.3 49 9.5 64 64 Calm 30.03 1017 10 16.0934 0 0
4:35 am 04:35 Clear 60 15.7 48 9.1 65 65 S 7 11 30.03 1017 10 16.0934 0 0
4:55 am 04:55 Clear 61 16.3 48 8.8 61 61 SW 3 6 30.03 1017 10 16.0934 0 0
5:15 am 05:15 Clear 59 15.1 48 8.7 66 66 Calm 30.03 1017 10 16.0934 0 0
5:35 am 05:35 Clear 59 15 47 8.5 65 65 Calm 30.03 1017 10 16.0934 0 0
5:55 am 05:55 Clear 59 15.1 48 8.7 66 66 Calm 30.03 1017 10 16.0934 0 0
6:15 am 06:15 Sunny 58 14.6 48 9.1 70 70 Calm 30.03 1017 10 16.0934 0 0
6:35 am 06:35 Sunny 58 14.4 48 9 70 70 Calm 30.03 1017 10 16.0934 0 0
6:55 am 06:55 Sunny 60 15.3 50 9.8 70 70 Calm 30.03 1017 10 16.0934 0 0
7:15 am 07:15 Sunny 62 16.6 52 11.1 70 70 Calm 30 1016 10 16.0934 0 0
7:35 am 07:35 Sunny 65 18.6 52 11.2 62 62 WSW 3 6 30 1016 10 16.0934 0 0
7:55 am 07:55 Sunny 71 21.8 50 10.1 47 47 WSW 6 9 29.97 1015 10 16.0934 0 0
8:15 am 08:15 Sunny 73 22.7 49 9.7 44 44 SW 7 11 29.97 1015 10 16.0934 0 0
8:35 am 08:35 Sunny 74 23.5 49 9.5 41 41 SW 9 15 29.97 1015 10 16.0934 0 0
8:55 am 08:55 Sunny 76 24.5 49 9.4 38 38 SW 10 17 29.94 1014 10 16.0934 0 0
9:15 am 09:15 Sunny 77 25.2 49 9.6 37 37 WSW 12 19 29.94 1014 10 16.0934 0 0
9:35 am 09:35 Sunny 78 25.5 49 9.7 37 37 WSW 12 19 29.94 1014 10 16.0934 0 0
9:55 am 09:55 Sunny 79 26.2 50 9.8 36 36 WSW 14 22 29.94 1014 10 16.0934 0 0
10:15 am 10:15 Sunny 80 26.8 51 10.5 36 36 WSW 12 19 29.91 1013 10 16.0934 0 0
10:35 am 10:35 Sunny 81 27.4 53 11.4 37 37 WSW 9 15 29.88 1012 10 16.0934 0 0
10:55 am 10:55 Sunny 82 27.8 54 12.1 38 38 W 12 19 29.88 1012 10 16.0934 0 0
11:15 am 11:15 Sunny 83 28.4 55 12.8 38 38 W 9 15 29.88 1012 10 16.0934 0 0
11:35 am 11:35 Sunny 84 28.7 56 13.3 39 39 W 6 9 29.88 1012 10 16.0934 0 0
11:55 am 11:55 Sunny 85 29.3 56 13.6 38 38 W 5 7 29.88 1012 10 16.0934 0 0
12:15 pm 12:15 Sunny 86 30 57 13.9 37 37 WNW 3 6 29.88 1012 10 16.0934 0 0
12:35 pm 12:35 Sunny 87 30.5 57 14.1 37 37 NW 3 6 29.85 1011 10 16.0934 0 0
12:55 pm 12:55 Sunny 88 30.9 57 14 36 36 Calm 29.83 1010 10 16.0934 0 0
1:15 pm 13:15 Sunny 89 31.7 58 14.4 35 35 SW 5 7 29.83 1010 10 16.0934 0 0
1:35 pm 13:35 Sunny 90 32 56 13.6 33 33 Calm 29.83 1010 10 16.0934 0 0
1:55 pm 13:55 Sunny 91 32.5 55 12.5 29 29 W 6 9 29.83 1010 10 16.0934 0 0
2:15 pm 14:15 Sunny 92 33.1 54 12.3 28 28 WSW 6 9 29.8 1009 10 16.0934 0 0
2:35 pm 14:35 Sunny 91 32.6 53 11.7 28 28 Calm 29.8 1009 10 16.0934 0 0
2:55 pm 14:55 Sunny 92 33.3 53 11.7 27 27 S 10 17 29.8 1009 10 16.0934 0 0
3:15 pm 15:15 Sunny 93 33.7 52 10.9 25 25 ESE 5 7 29.8 1009 10 16.0934 0 0
3:35 pm 15:35 Sunny 93 33.8 50 10.2 23 23 SE 5 7 29.77 1008 10 16.0934 0 0
3:55 pm 15:55 Sunny 94 34.2 50 10.2 23 23 E 8 13 29.74 1007 10 16.0934 0 0
4:15 pm 16:15 Sunny 94 34.2 52 10.9 24 24 SSE 6 9 29.71 1006 10 16.0934 0 0
4:35 pm 16:35 Sunny 94 34.5 52 11.2 24 24 Calm 29.71 1006 10 16.0934 0 0
4:55 pm 16:55 Sunny 94 34.5 52 11.3 24 24 ESE 7 11 29.71 1006 10 16.0934 0 0
5:15 pm 17:15 Sunny 94 34.7 54 12.3 26 26 ESE 13 20 29.71 1006 10 16.0934 0 0
5:35 pm 17:35 Sunny 94 34.4 54 12.2 26 26 E 10 17 29.68 1005 10 16.0934 0 0
5:55 pm 17:55 Sunny 94 34.2 54 12.3 26 26 E 10 17 29.68 1005 10 16.0934 0 0
6:15 pm 18:15 Sunny 94 34.6 55 12.8 27 27 ESE 10 17 29.68 1005 10 16.0934 0 0
6:35 pm 18:35 Sunny 94 34.2 54 12.4 27 27 ESE 14 22 29.68 1005 10 16.0934 0 0
6:55 pm 18:55 Partly Cloudy 94 34.4 53 11.6 25 25 E 13 20 29.68 1005 10 16.0934 0 0
7:15 pm 19:15 Partly Cloudy 92 33.5 55 12.6 28 28 SE 10 17 29.68 1005 10 16.0934 0 0
7:35 pm 19:35 Mostly Cloudy 92 33.2 54 12.3 28 28 SE 15 24 29.68 1005 10 16.0934 0 0
7:55 pm 19:55 Mostly Cloudy 89 31.8 55 12.5 31 31 SE 9 15 29.71 1006 10 16.0934 0 0
8:15 pm 20:15 Cloudy with Haze 79 26 61 16.3 55 55 SW 23 37 29.83 1010 4 6.43736 0 0
8:35 pm 20:35 Partly Cloudy 78 25.6 62 16.5 57 57 SSW 18 30 29.8 1009 10 16.0934 0 0
8:55 pm 20:55 Sunny 77 25.1 62 16.7 60 60 S 13 20 29.8 1009 10 16.0934 0 0
9:15 pm 21:15 Clear 78 25.6 62 16.7 58 58 S 10 17 29.8 1009 10 16.0934 0 0
9:35 pm 21:35 Clear 75 24.1 63 17.1 65 65 SSE 5 7 29.8 1009 10 16.0934 0 0
9:55 pm 21:55 Clear 75 23.8 63 17.1 66 66 SSE 6 9 29.8 1009 10 16.0934 0 0
10:15 pm 22:15 Clear 73 22.7 63 17.2 71 71 ESE 8 13 29.8 1009 10 16.0934 0 0
10:35 pm 22:35 Clear 73 22.5 64 17.7 74 74 SE 7 11 29.8 1009 10 16.0934 0 0
10:55 pm 22:55 Clear 71 21.9 64 17.8 78 78 SSE 5 7 29.83 1010 10 16.0934 0 0
11:15 pm 23:15 Clear 71 21.8 64 17.8 78 78 SE 8 13 29.83 1010 10 16.0934 0 0
11:35 pm 23:35 Clear 71 21.4 64 17.9 81 81 ESE 6 9 29.83 1010 10 16.0934 0 0
11:55 pm 23:55 Clear 69 20.8 64 17.8 83 83 ESE 6 9 29.83 1010 10 16.0934 0 0

Powered by AerisWeather